TimeCDT,TemperatureF,Dew PointF,Humidity,Sea Level PressureIn,VisibilityMPH,Wind Direction,Wind SpeedMPH,Gust SpeedMPH,PrecipitationIn,Events,Conditions,WindDirDegrees,DateUTC
12:53 AM,66.0,55.0,68,30.06,10.0,SSW,3.5,-,N/A,,Clear,200,2013-09-04 05:53:00
1:53 AM,66.9,53.1,61,30.06,10.0,South,5.8,-,N/A,,Clear,180,2013-09-04 06:53:00
2:53 AM,66.9,51.1,57,30.07,10.0,SSE,4.6,-,N/A,,Clear,150,2013-09-04 07:53:00
3:53 AM,62.1,54.0,75,30.08,10.0,SE,3.5,-,N/A,,Clear,140,2013-09-04 08:53:00
4:53 AM,64.0,52.0,65,30.09,10.0,Calm,Calm,-,N/A,,Clear,0,2013-09-04 09:53:00
5:53 AM,59.0,55.0,87,30.09,10.0,Calm,Calm,-,N/A,,Clear,0,2013-09-04 10:53:00
6:53 AM,60.1,55.0,83,30.12,10.0,Calm,Calm,-,N/A,,Clear,0,2013-09-04 11:53:00
7:53 AM,62.1,57.0,84,30.14,10.0,Calm,Calm,-,N/A,,Clear,0,2013-09-04 12:53:00
8:53 AM,69.1,55.9,63,30.15,10.0,Calm,Calm,-,N/A,,Clear,0,2013-09-04 13:53:00
9:53 AM,78.1,59.0,52,30.16,10.0,WNW,5.8,-,N/A,,Clear,290,2013-09-04 14:53:00
10:53 AM,81.0,55.0,41,30.17,10.0,WSW,6.9,-,N/A,,Clear,240,2013-09-04 15:53:00
11:53 AM,82.0,55.9,41,30.16,10.0,West,6.9,-,N/A,,Clear,280,2013-09-04 16:53:00
12:53 PM,84.0,55.0,37,30.15,10.0,WNW,6.9,-,N/A,,Clear,290,2013-09-04 17:53:00
1:53 PM,86.0,54.0,33,30.13,10.0,NNW,4.6,-,N/A,,Clear,340,2013-09-04 18:53:00
2:53 PM,89.1,55.0,31,30.11,10.0,Variable,4.6,-,N/A,,Clear,0,2013-09-04 19:53:00
3:53 PM,89.1,55.0,31,30.09,10.0,Calm,Calm,-,N/A,,Clear,0,2013-09-04 20:53:00
4:53 PM,88.0,55.0,32,30.09,10.0,SSE,3.5,-,N/A,,Clear,150,2013-09-04 21:53:00
5:53 PM,88.0,55.0,32,30.09,10.0,ESE,3.5,-,N/A,,Clear,110,2013-09-04 22:53:00
6:53 PM,84.9,55.9,37,30.09,10.0,SE,3.5,-,N/A,,Clear,130,2013-09-04 23:53:00
7:53 PM,82.9,55.9,39,30.09,10.0,SSE,3.5,-,N/A,,Clear,160,2013-09-05 00:53:00
8:53 PM,77.0,57.9,52,30.11,10.0,ENE,3.5,-,N/A,,Clear,70,2013-09-05 01:53:00
9:53 PM,79.0,57.9,48,30.11,10.0,ESE,3.5,-,N/A,,Clear,110,2013-09-05 02:53:00
10:53 PM,73.0,60.1,64,30.12,10.0,South,4.6,-,N/A,,Clear,170,2013-09-05 03:53:00
11:53 PM,72.0,57.9,61,30.13,10.0,SSW,4.6,-,N/A,,Clear,210,2013-09-05 04:53:00